sat.trackr.live / text

‹ back to catalog

DIWATA-2B

NORAD 43678 · 2018-084H

PAYLOAD ACTIVE UNKNOWN

§ Identity

Operator
Country
RP
Launch date
2018-10-29
Launch site
TANSC
Launch vehicle
Mass (kg)
RCS (m²)

Purposes: comms

External: N2YO · Heavens-Above · Gunter

§ Orbital elements

Epoch: 2026-09-20T04:33:05.822208Z

Period
95.95 min
Inclination
98.1174°
Eccentricity
0.0011959
Mean motion
15.00738558 rev/d
Perigee alt
556.3 km
Apogee alt
572.9 km
Semi-major
6,942.8 km
B*
7.7117e-5
RAAN
103.5804°
Arg perigee
209.8877°
Mean anomaly
150.1664°
Rev number
43,046

§ Raw data

DIWATA-2B1 43678U 18084H   26263.18965072  .00000913  00000+0  77117-4 0  99952 43678  98.1174 103.5804 0011959 209.8877 150.1664 15.00738558430469

JSON: /api/v1/satellites/43678 · /tle

For live sub-satellite position, see the globe view (requires WebGL).

§ Visibility from observer

Set your observer location to see the next 7 days of passes ≥ 10°. The values pass through the URL so the page stays shareable.

No JS? Fill the form by hand. The geolocation button needs JavaScript.

§ Radio — SatNOGS DB

ModeDescriptionDownlinkUplink
CW CW Beacon 145.900 MHz
FM FM VOICE 145.900 MHz 437.500 MHz
FM Mode S 2.285 GHz
AFSK AFSK1k2 (inactive) 145.900 MHz 437.500 MHz

4 transmitters · refreshed weekly from db.satnogs.org